STARLINK-33792, 63506

Orbit data source: Space-Track

STARLINK-33792, 63506 is a payload satellite owned by SpaceX/Seattle (US) in LEO that was launched on Mon, 07 Apr 2025 UTC via an FALCON 9 launch vehicle from the Air Force Western Test Range (AFWTR). Payload-class satellites include a variety of spacecraft equipped with specific instruments for various scientific and technological missions. These include communications satellites like Starlink; space stations such as the ISS; scientific satellites like the Hubble; Earth observation satellites from companies like Planet Labs, Umbra, and HawkEye 360; GPS; miniature CubeSats for education and research; and military/defense satellites.

Loading next visibility...
Identifier
63506, 2025-071P
Orbit
LEO
Last TLE update
6 hours ago
Origin
Manufacturer
SpaceX/Seattle
Mission
Operational Commercial Communications
Bus & Motor
STARLINK V2MO, Unknown motor
Mass
575 kg wet, ~530 kg dry
Launch date (UTC)
2025-04-07 (1 month ago)
Launch vehicle
FALCON 9
Launch site
Air Force Western Test Range (AFWTR)
Object type
Payload
Rocket body
Debris
Shape & HBR
Box + 1 Pan, 29 m
Radar Cross Section
41.120 m², Large (>1 m²)

Expand to show TLE details & history

TLE from 6 hours ago
0 STARLINK-33792
1 63506U 25071P   25129.54685962 -.00105177  00000-0 -19654-2 0  9999
2 63506  53.1611 116.9386 0001637  45.4797 314.6345 15.48473171  6087
Epoch: 2025-05-09T13:07Z
Definitive object data (Epoch: 2025-05-09T13:07:28.671Z)
Latitude
-0.00003°
Longitude
52.46768°
Altitude
421.317 km
Speed
7.66 km/s
True Right ascension
07h 47m 45s
True Declination
0° 00' 00"
Sunlit
Object was in daylight at TLE epoch
Visualization TLE readout
Latitude
-39.11353°
Longitude
13.99748°
Altitude
434.311 km
Speed
7.651 km/s
Apparent Right ascension
09h 41m 40s
Apparent Declination
-72° 40' 50"
Sunlit
Object is in daylight
Visualization observer readout
Local Sidereal Time
03:16:47
Azimuth
157.416° SSE
Elevation
-39.592°
Doppler factor
1
Orbital elements
Apogee altitude
422.563 km
Perigee altitude
420.337 km
Semi-major axis
6,799.587 km
Eccentricity
0.0001637
Inclination
53.1611°
RAAN
116.9386°
Arg. of periapsis
45.4797°
True anomaly
314.62115°
Mean anomaly
314.6345°
Eccentric anomaly
314.62782°
Mean motion
3.87097 °/min
BSTAR
-0.0019654
Orbital period
93 mins
Loading maneuver chart data...
Loading SW <> Apogee altitude chart data...
Loading historical data...
Loading historical data...
Loading historical data...
Loading historical data...
Loading historical data...
Loading historical data...
Loading historical data...

STARLINK-33792 Visibility forecast

Observer location: undefined°, undefined°

Span
Click to sort rows by Start time (UTC) header in descending order
Start Az.
Max El. time (UTC)
Max El. Az.
Max El.
End time (UTC)
End Az.
6 mins2025-05-10 01:40:52.828Z217.089° SW2025-05-10 01:43:52.828Z163.429° S40.034°2025-05-10 01:46:52.828Z58.335° ENE
4 mins2025-05-10 08:12:52.828Z337.082° NNW2025-05-10 08:13:52.828Z8.163° NNE33.563°2025-05-10 08:16:52.828Z105.832° ESE
|